[[[{"header":{"parameterUnit":"kt","parameterCategory":2,"dx":1,"dy":1,"la1":30.253999710083008,"la2":30.299108505249023,"lo1":-89.0895004272461,"lo2":-89.04439544677734,"nx":28,"ny":28,"refTime":"2022-10-12T21:00:00:Z","depth":0,"parameterNumber":1,"parameterNumberName":"U-component_of_WINDS"},"data":[-6.6025,-6.614,-6.6116,-6.6237,-6.6234,-6.6313,-6.6333,-6.6356,-6.6368,-6.6458,-6.6506,-6.6492,-6.6493,-6.6544,-6.6594,-6.6586,-6.6611,-6.6671,-6.6652,-6.6404,-6.6368,-6.6334,-6.6306,-6.6676,-6.6676,-6.6914,-6.6916,-6.6918,-6.5851,-6.585,-6.5906,-6.5943,-6.5991,-6.5918,-6.5941,-6.5986,-6.6058,-6.6072,-6.6117,-6.6194,-6.6251,-6.623,-6.6281,-6.6335,-6.6304,-6.6351,-6.6348,-6.635,-6.6083,-6.6053,-6.6376,-6.6376,-6.6376,-6.6376,-6.6376,-6.6376,-6.5527,-6.5597,-6.5604,-6.5663,-6.5674,-6.5699,-6.5761,-6.5741,-6.5795,-6.5844,-6.5801,-6.5881,-6.589,-6.5937,-6.5945,-6.6008,-6.595,-6.5994,-6.6005,-6.6018,-6.6037,-6.5704,-6.6014,-6.6013,-6.6012,-6.6011,-6.601,0,-6.5283,-6.5257,-6.5307,-6.5351,-6.5392,-6.5423,-6.5446,-6.5483,-6.5416,-6.5463,-6.5529,-6.5562,-6.5628,-6.5687,-6.5727,-6.5726,-6.5655,-6.5643,-6.5674,-6.5698,-6.5716,-6.5711,-6.5281,-6.5635,-6.5631,-6.5629,-6.5627,-6.5626,-6.4957,-6.5039,-6.5032,-6.5071,-6.5077,-6.514,-6.5172,-6.5106,-6.5144,-6.5162,-6.5226,-6.5283,-6.5326,-6.5434,-6.5409,-6.5457,-6.5424,-6.5563,-6.543,-6.5451,-6.543,-6.5427,-6.5436,-6.559,-6.5595,-6.5599,-6.5602,0,-6.4777,-6.4732,-6.4851,-6.4834,-6.4832,-6.4922,-6.4908,-6.4973,-6.4945,-6.5032,-6.5048,-6.5004,-6.5069,-6.5019,-6.5082,-6.5055,-6.5207,-6.517,-6.5204,-6.5196,-6.5318,-6.5308,-6.5714,-6.5765,-6.5377,-6.5381,-6.5384,0,-6.4483,-6.4593,-6.4519,-6.459,-6.4711,-6.464,-6.4761,-6.4749,-6.4753,-6.482,-6.4729,-6.4795,-6.472,-6.4779,-6.4738,-6.4852,-6.4863,-6.485,-6.4838,-6.486,-6.4862,-6.488,-6.4864,-6.4804,-6.4802,-6.48,-6.4798,0,-6.4208,-6.4295,-6.4409,-6.4422,-6.4413,-6.4469,-6.4468,-6.447,-6.4502,-6.4534,-6.4554,-6.4597,-6.4621,-6.4656,-6.4604,-6.4516,-6.474,-6.4609,-6.4727,-6.4729,-6.4781,-6.4779,-6.5149,-6.4796,-6.4795,-6.4794,-6.4794,0,-6.3963,-6.3997,-6.4168,-6.4159,-6.4184,-6.4259,-6.4296,-6.4347,-6.4357,-6.4335,-6.436,-6.4293,-6.4386,-6.426,-6.4387,-6.4289,-6.4319,-6.4313,-6.432,-6.4328,-6.419,-6.4409,-6.4763,-6.48,-6.4333,-6.4329,-6.4326,0,-6.3664,-6.3822,-6.3762,-6.3925,-6.3992,-6.3886,-6.3967,-6.3977,-6.3954,-6.4008,-6.3982,-6.4044,-6.3939,-6.3951,-6.402,-6.3997,-6.4125,-6.3978,-6.406,-6.4064,-6.4065,-6.4389,-6.4456,-6.4691,-6.4276,-6.4281,-6.4285,0,-6.3425,-6.341,-6.3444,-6.3455,-6.3455,-6.3509,-6.3602,-6.3646,-6.3685,-6.3704,-6.3782,-6.3864,-6.3789,-6.3809,-6.3759,-6.3834,-6.4037,-6.3743,-6.3742,-6.3801,-6.4245,-6.4308,-6.4348,-6.3986,-6.3992,-6.3997,-6.4245,0,-6.3072,-6.3143,-6.3229,-6.3255,-6.3288,-6.3385,-6.333,-6.3372,-6.332,-6.3293,-6.3404,-6.3396,-6.3441,-6.347,-6.3419,-6.3605,-6.3566,-6.3485,-6.336,-6.3573,-6.3653,-6.3686,-6.3245,-6.3241,-6.3238,-6.3235,0,0,-6.2799,-6.2898,-6.2827,-6.2913,-6.2937,-6.2823,-6.2933,-6.2942,-6.2963,-6.2983,-6.2912,-6.3028,-6.3025,-6.3166,-6.3227,-6.3244,-6.3273,-6.32,-6.3471,-6.3498,-6.3522,-6.361,-6.3644,-6.3229,-6.3228,-6.3226,-6.3225,0,-6.2658,-6.2655,-6.2763,-6.2769,-6.2776,-6.2741,-6.2767,-6.2753,-6.2741,-6.2846,-6.2752,-6.2811,-6.2903,-6.2914,-6.2931,-6.3181,-6.3107,-6.3198,-6.3353,-6.3439,-6.347,-6.3497,-6.359,-6.3623,-6.3217,-6.3218,-6.3218,0,-6.2416,-6.2405,-6.245,-6.2494,-6.2497,-6.2566,-6.2422,-6.25,-6.2551,-6.2421,-6.2528,-6.2517,-6.2524,-6.2662,-6.2722,-6.266,-6.296,-6.2853,-6.2873,-6.2879,-6.2959,-6.2997,-6.303,-6.2592,-6.259,-6.2588,0,0,-6.2302,-6.2366,-6.2332,-6.246,-6.2468,-6.2417,-6.2447,-6.2397,-6.2406,-6.241,-6.2392,-6.2404,-6.2457,-6.2494,-6.254,-6.2699,-6.2697,-6.2778,-6.2808,-6.2832,-6.2852,-6.2939,-6.2976,-6.2581,-6.2581,-6.258,0,0,-6.2248,-6.2213,-6.2158,-6.2299,-6.231,-6.2285,-6.2366,-6.2298,-6.2334,-6.2316,-6.2236,-6.2235,-6.2363,-6.2354,-6.2263,-6.2496,-6.2373,-6.2393,-6.2497,-6.2533,-6.2562,-6.2562,-6.2114,0,0,0,0,0,-6.2075,-6.2217,-6.2168,-6.2183,-6.2238,-6.2313,-6.2319,-6.2256,-6.2171,-6.2237,-6.2212,-6.2129,-6.2289,-6.2206,-6.2223,-6.2326,-6.2486,-6.2503,-6.2519,-6.2689,-6.2728,-6.276,0,0,0,0,0,0,-6.208,-6.2099,-6.2164,-6.2146,-6.2157,-6.2307,-6.215,-6.2136,-6.2163,-6.2145,-6.2136,-6.2128,-6.2076,-6.2193,-6.2209,-6.2309,-6.2108,-6.2493,-6.2507,-6.252,-6.2702,-6.2734,-6.2761,0,0,0,0,0,-6.2084,-6.2099,-6.2203,-6.2143,-6.2153,-6.2103,-6.2144,-6.2131,-6.215,-6.2111,-6.21,-6.21,-6.208,-6.2089,-6.2202,-6.2303,-6.2097,-6.2103,-6.2502,-6.2513,-6.2523,-6.2718,0,0,0,0,0,0,-6.2087,-6.2088,-6.2204,-6.2204,-6.2084,-6.2093,-6.2092,-6.2128,-6.2113,-6.2104,-6.207,-6.2057,-6.2085,-6.2091,-6.2099,-6.2305,-6.2088,-6.2094,-6.2098,-6.2511,-6.252,-6.2527,0,0,0,0,0,0,-6.2079,-6.209,-6.2204,-6.2133,-6.2124,-6.2085,-6.2084,-6.217,-6.2114,-6.2072,-6.2061,-6.2064,-6.2074,-6.2094,-6.2099,-6.2235,-6.2081,-6.2087,-6.2091,-6.2093,-6.2518,-6.2525,0,0,0,0,0,0,-6.2083,-6.2091,-6.2132,-6.2126,-6.2118,-6.2122,-6.2159,-6.2219,-6.2053,-6.2075,-6.2036,-6.2029,-6.2079,-6.2083,-6.21,-6.2235,-6.2235,-6.2081,-6.2085,-6.2088,-6.209,0,0,0,0,0,0,0,-6.2085,-6.2043,-6.2199,-6.212,-6.2113,-6.2211,-6.2212,-6.2212,-6.2051,-6.2045,-6.2038,-6.2032,-6.2046,-6.2053,-6.206,-6.2234,0,0,-6.208,-6.2083,0,0,0,0,0,0,0,0,-6.2038,-6.2042,-6.2199,-6.2199,-6.22,-6.2211,-6.2212,-6.2212,-6.205,-6.2045,-6.2039,-6.2034,-6.2048,-6.2054,-6.2059,0,0,0,0,0,0,0,0,0,0,0,0,0,0,0,-6.2199,-6.2199,0,-6.2212,-6.2212,-6.2212,-6.2049,-6.2045,-6.2041,-6.2036,-6.205,-6.2054,-6.2058,0,0,0,0,0,0,0,0,0,0,0,0,0,0,0,0,0,0,0,0,0,0,0,0,0,0,0,0,0,0,0,0,0,0,0,0,0,0,0,0,0,0,0,0,0,0,0,0,0,0,0,0,0,0,0,0,0,0,0,0,0,0,0,0,0,0,0,0,0]}],[{"header":{"parameterUnit":"kt","parameterCategory":2,"dx":1,"dy":1,"la1":30.253999710083008,"la2":30.299108505249023,"lo1":-89.0895004272461,"lo2":-89.04439544677734,"nx":28,"ny":28,"refTime":"2022-10-12T21:00:00:Z","depth":0,"parameterNumber":2,"parameterNumberName":"V-component_of_WINDS"},"data":[-5.5734,-5.5822,-5.5819,-5.5916,-5.593,-5.5996,-5.6018,-5.6046,-5.6067,-5.6143,-5.6185,-5.6189,-5.6207,-5.6256,-5.63,-5.6301,-5.632,-5.6354,-5.6348,-5.6204,-5.6183,-5.6164,-5.6144,-5.6358,-5.6358,-5.6499,-5.65,-5.6501,-5.5628,-5.5643,-5.5694,-5.5741,-5.5785,-5.5751,-5.5784,-5.5822,-5.5881,-5.5907,-5.5949,-5.6015,-5.6066,-5.6072,-5.612,-5.6158,-5.6145,-5.6172,-5.6169,-5.6172,-5.6017,-5.5996,-5.6182,-5.6182,-5.6182,-5.6182,-5.6182,-5.6182,-5.5434,-5.5487,-5.5514,-5.5569,-5.5591,-5.5623,-5.5671,-5.5676,-5.5724,-5.5775,-5.576,-5.5826,-5.585,-5.5905,-5.5922,-5.5972,-5.5941,-5.5969,-5.5976,-5.5983,-5.5993,-5.5791,-5.5979,-5.5979,-5.5978,-5.5978,-5.5977,0,-5.5292,-5.5286,-5.5334,-5.5382,-5.5422,-5.5458,-5.549,-5.552,-5.5504,-5.5544,-5.5602,-5.5634,-5.5697,-5.575,-5.5793,-5.5805,-5.5772,-5.5768,-5.5787,-5.5797,-5.5799,-5.58,-5.5548,-5.5763,-5.5761,-5.576,-5.5759,-5.5758,-5.5097,-5.5158,-5.5184,-5.5219,-5.5236,-5.5291,-5.5323,-5.5304,-5.5339,-5.5374,-5.542,-5.5473,-5.5515,-5.5606,-5.5609,-5.5655,-5.564,-5.5723,-5.5646,-5.5653,-5.5642,-5.5639,-5.5645,-5.5738,-5.5741,-5.5743,-5.5744,0,-5.4987,-5.4982,-5.5075,-5.5095,-5.5101,-5.5166,-5.5182,-5.5232,-5.523,-5.5299,-5.5314,-5.5311,-5.5367,-5.5356,-5.5417,-5.541,-5.5514,-5.5497,-5.5506,-5.5502,-5.5576,-5.5569,-5.5815,-5.5846,-5.5623,-5.5625,-5.5627,0,-5.4819,-5.49,-5.4887,-5.4941,-5.503,-5.5009,-5.5097,-5.5105,-5.5126,-5.518,-5.5142,-5.5193,-5.5171,-5.522,-5.5209,-5.5292,-5.5303,-5.5302,-5.5299,-5.5307,-5.5307,-5.5324,-5.5314,-5.5287,-5.5285,-5.5284,-5.5283,0,-5.4649,-5.4736,-5.4825,-5.4844,-5.4872,-5.4914,-5.4927,-5.495,-5.4981,-5.502,-5.5039,-5.5085,-5.511,-5.5145,-5.5131,-5.508,-5.5232,-5.5158,-5.5231,-5.5232,-5.5266,-5.5264,-5.5484,-5.5282,-5.5281,-5.5281,-5.5281,0,-5.4512,-5.4554,-5.4683,-5.4705,-5.4729,-5.4786,-5.4831,-5.4878,-5.4905,-5.4902,-5.4932,-5.4905,-5.4977,-5.4905,-5.5002,-5.494,-5.4967,-5.4972,-5.4977,-5.4984,-5.4904,-5.503,-5.524,-5.5262,-5.4988,-5.4986,-5.4984,0,-5.432,-5.4448,-5.4432,-5.4555,-5.4613,-5.4567,-5.463,-5.4656,-5.4657,-5.4705,-5.4706,-5.4761,-5.4705,-5.472,-5.477,-5.4773,-5.4854,-5.4762,-5.483,-5.4833,-5.4826,-5.5018,-5.5053,-5.5195,-5.4953,-5.4956,-5.4958,0,-5.417,-5.4205,-5.4228,-5.4248,-5.428,-5.4328,-5.4401,-5.4451,-5.4484,-5.4516,-5.4577,-5.4652,-5.4614,-5.464,-5.4623,-5.4675,-5.4798,-5.4626,-5.4626,-5.4658,-5.4936,-5.4968,-5.4992,-5.4775,-5.4779,-5.4782,-5.4933,0,-5.3966,-5.403,-5.4091,-5.4139,-5.4174,-5.425,-5.424,-5.4278,-5.4258,-5.4258,-5.4346,-5.4363,-5.4413,-5.4437,-5.4418,-5.4542,-5.452,-5.4477,-5.4407,-5.4533,-5.4583,-5.4603,-5.4334,-5.4332,-5.433,-5.4329,0,0,-5.3783,-5.3874,-5.3854,-5.3925,-5.3954,-5.3905,-5.3987,-5.4009,-5.4054,-5.4075,-5.4035,-5.4146,-5.4162,-5.4269,-5.4307,-5.4327,-5.4348,-5.4305,-5.4473,-5.4489,-5.4504,-5.4558,-5.4579,-5.4326,-5.4325,-5.4324,-5.4324,0,-5.3707,-5.3727,-5.3809,-5.3831,-5.3863,-5.3859,-5.3879,-5.3902,-5.3906,-5.3992,-5.395,-5.4,-5.4089,-5.4112,-5.4135,-5.4291,-5.4257,-5.4307,-5.4396,-5.4455,-5.4474,-5.449,-5.4547,-5.4567,-5.4319,-5.432,-5.432,0,-5.3559,-5.3576,-5.3615,-5.3678,-5.3699,-5.3759,-5.3683,-5.375,-5.3794,-5.3737,-5.3823,-5.3831,-5.386,-5.3962,-5.4008,-5.3973,-5.4174,-5.4108,-5.4119,-5.4124,-5.4182,-5.4204,-5.4224,-5.3962,-5.3961,-5.396,0,0,-5.3494,-5.3553,-5.3566,-5.3661,-5.3677,-5.3673,-5.3704,-5.3688,-5.3716,-5.3727,-5.3737,-5.3765,-5.3816,-5.385,-5.3897,-5.4011,-5.4016,-5.4065,-5.4082,-5.4095,-5.4108,-5.4169,-5.4191,-5.3955,-5.3955,-5.3955,0,0,-5.3463,-5.3482,-5.3458,-5.3568,-5.3597,-5.3615,-5.3673,-5.3643,-5.3685,-5.3675,-5.365,-5.3656,-5.3752,-5.3762,-5.3703,-5.3872,-5.3803,-5.3817,-5.3863,-5.3884,-5.39,-5.3896,-5.3627,0,0,0,0,0,-5.3381,-5.348,-5.3458,-5.3475,-5.3554,-5.3627,-5.3637,-5.3619,-5.3571,-5.3617,-5.3621,-5.3581,-5.3725,-5.3672,-5.3688,-5.3754,-5.3897,-5.3908,-5.3917,-5.4003,-5.4026,-5.4044,0,0,0,0,0,0,-5.3387,-5.3408,-5.3455,-5.3478,-5.3495,-5.3623,-5.3537,-5.3535,-5.3565,-5.3557,-5.3582,-5.3582,-5.3568,-5.3662,-5.3677,-5.3741,-5.3622,-5.3901,-5.391,-5.3918,-5.4011,-5.4029,-5.4045,0,0,0,0,0,-5.3392,-5.3409,-5.3542,-5.3476,-5.3492,-5.3492,-5.3533,-5.3531,-5.3554,-5.356,-5.3559,-5.3538,-5.357,-5.3581,-5.3671,-5.3734,-5.3611,-5.3617,-5.3907,-5.3914,-5.392,-5.402,0,0,0,0,0,0,-5.3396,-5.3407,-5.3544,-5.3548,-5.3438,-5.3484,-5.3491,-5.3528,-5.3554,-5.3555,-5.3514,-5.3507,-5.3573,-5.3581,-5.359,-5.3733,-5.3602,-5.3608,-5.3612,-5.3912,-5.3918,-5.3922,0,0,0,0,0,0,-5.3398,-5.3411,-5.3546,-5.3499,-5.3497,-5.3478,-5.3484,-5.3557,-5.3555,-5.3507,-5.3502,-5.3511,-5.3559,-5.3582,-5.3588,-5.3703,-5.3596,-5.3601,-5.3605,-5.3608,-5.3917,-5.3921,0,0,0,0,0,0,-5.3403,-5.3414,-5.3497,-5.3496,-5.3495,-5.3537,-5.3541,-5.3624,-5.3516,-5.3506,-5.3506,-5.3501,-5.356,-5.3567,-5.3587,-5.37,-5.3702,-5.3596,-5.36,-5.3603,-5.3604,0,0,0,0,0,0,0,-5.3407,-5.3337,-5.3521,-5.3494,-5.3493,-5.3585,-5.3586,-5.3587,-5.3515,-5.3511,-5.3507,-5.3503,-5.3564,-5.357,-5.3576,-5.3697,0,0,-5.3595,-5.3598,0,0,0,0,0,0,0,0,-5.3332,-5.3336,-5.3521,-5.3522,-5.3523,-5.3585,-5.3586,-5.3587,-5.3514,-5.3511,-5.3508,-5.3505,-5.3566,-5.3571,-5.3576,0,0,0,0,0,0,0,0,0,0,0,0,0,0,0,-5.3521,-5.3522,0,-5.3585,-5.3586,-5.3586,-5.3514,-5.3511,-5.3508,-5.3506,-5.3567,-5.3571,-5.3575,0,0,0,0,0,0,0,0,0,0,0,0,0,0,0,0,0,0,0,0,0,0,0,0,0,0,0,0,0,0,0,0,0,0,0,0,0,0,0,0,0,0,0,0,0,0,0,0,0,0,0,0,0,0,0,0,0,0,0,0,0,0,0,0,0,0,0,0,0]}]]]